ATLAS 5 CENTAUR DEB, 49359

Orbit data source: Space-Track

ATLAS 5 CENTAUR DEB, 49359 is space debris in HEO originally from a launch on Wed, 17 Oct 2018 UTC launched from the Air Force Eastern Test Range (AFETR). Debris objects in space refer to the collection of defunct objects orbiting the Earth. Examples of debris include non-operational satellites, rocket bodies, and fragments generated from explosions, collisions, or faulty payload assembly.

Loading next visibility...
Identifier
49359, 2018-079FL
Orbit
HEO
Country
Flag of USUS
Related business
Flag of USUnited Launch Alliance/Lockheed Martin (US)
Manufacturer
ULA Decatur
Mission
Spacecraft
Bus & Motor
Unknown
Mass
Unknown
Launch date (UTC)
2018-10-17 (8 years ago)
Launch vehicle
Unknown
Launch site
Air Force Eastern Test Range (AFETR)
Object type
Payload
Rocket body
Debris
Shape & HBR
Unknown shape, 1.1 m
Radar Cross Section
RCS unknown

Expand to show TLE details & history
Last TLE update: 4 days ago

TLE from 4 days ago
0 ATLAS 5 CENTAUR DEB
1 49359U 18079FL  26169.21727784 -.00000126  00000-0  00000-0 0  9997
2 49359  13.3335  22.0487 4711832 346.0431   4.4948  1.87006917 32801
Epoch: 2026-06-18T05:12Z
TLE epoch observation values (Epoch: 2026-06-18T05:12:52.805Z)
Latitude
0.00015°
Longitude
37.35945°
Altitude
8,508.338 km
Speed
6.263 km/s
True Right ascension
01h 28m 10s
True Declination
0° 00' 01"
Sunlit
Object was in daylight at epoch
Visualization orbit readout
Latitude
Unknown
Longitude
Unknown
Altitude
Unknown
Speed
Unknown
Apparent Right ascension
Unknown
Apparent Declination
Unknown
Sunlit
N/A
Visualization observer readout
Local Sidereal Time
21:37:47
Azimuth
Unknown
Elevation
Unknown
Doppler factor
Unknown
Orbital elements
Apogee altitude
34,566.485 km
Perigee altitude
8,339.408 km
Semi-major axis
27,831.084 km
Eccentricity
0.47118
Inclination
13.3335°
RAAN
22.0487°
Arg. of periapsis
346.0431°
True anomaly
14.08565°
Mean anomaly
4.4948°
Eccentric anomaly
8.47225°
Mean motion
0.46746 °/min
Orbital period
770.11 mins
BSTAR
0
Loading maneuver chart data...
Computing Atmospheric mass density...

Documentation

Showing up to 5 results
|